Weather History for CAAW - December, 2013

Change the Weather History Date:

Monday, December 23, 2013

  Actual Average Record
Temperature  
Mean Temperature 33 °F -  
Max Temperature 36 °F - - ()
Min Temperature 30 °F - - ()
Degree Days  
Heating Degree Days 32    
Moisture  
Dew Point 32 °F    
Average Humidity 98    
Maximum Humidity 100    
Minimum Humidity 96    
Precipitation  
Precipitation 0.20 in - - ()
Sea Level Pressure  
Sea Level Pressure 30.08 in    
Wind  
Wind Speed 6 mph ()    
Max Wind Speed 12 mph    
Max Gust Speed -    
T = Trace of Precipitation, MM = Missing Value Source: Averaged Metar Reports

Daily Weather History Graph

Daily Weather History Graph

Search for Another Location

Airport or City:

Trip Planner

Search our weather history database for the weather conditions in past years. The results will help you decide how hot, cold, wet, or windy it might be!

Date:

Astronomy

Dec. 23, 2013 Rise Set
Actual Time 7:48 AM AST 4:37 PM AST
Civil Twilight 7:15 AM AST 5:11 PM AST
Nautical Twilight 6:38 AM AST 5:48 PM AST
Astronomical Twilight 6:02 AM AST 6:23 PM AST
Moon 10:57 PM AST (12/23) 10:59 AM AST (12/23)
Length of Visible Light 9h 56m
Length of Day
8h 48m
Waning Gibbous, 68% of the Moon is Illuminated
Dec 23
Waning Gibbous
Dec 25
Last Quarter
Jan 1
New
Jan 7
First Quarter
Jan 16
Full

Hourly Weather History & Observations

Time (AST) Temp. Windchill Dew Point Humidity Pressure Visibility Wind Dir Wind Speed Gust Speed Precip Events Conditions
12:00 AM 30.4 °F 23.6 °F 29.5 °F 96% 30.11 in - NE 6.9 mph - N/A   Unknown
1:00 AM 30.2 °F 23.4 °F 29.5 °F 97% 30.11 in - NE 6.9 mph - N/A   Unknown
2:00 AM 30 °F - 29 °F 97% 30.11 in - NE 6.9 mph - -  
2:00 AM 30.2 °F 22.6 °F 29.5 °F 97% 30.11 in - ENE 8.1 mph - N/A   Unknown
3:00 AM 30.4 °F 24.5 °F 29.8 °F 98% 30.16 in - NE 5.8 mph - N/A   Unknown
4:00 AM 30.4 °F 25.6 °F 29.8 °F 98% 30.15 in - ENE 4.6 mph - N/A   Unknown
5:00 AM 30.6 °F 24.7 °F 30.0 °F 98% 30.13 in - ENE 5.8 mph - N/A   Unknown
6:00 AM 31.3 °F - 30.7 °F 98% 30.14 in - East 2.3 mph - N/A   Unknown
7:00 AM 31.6 °F 28.3 °F 31.1 °F 98% 30.16 in - NE 3.5 mph - N/A   Unknown
8:00 AM 31 °F - 31 °F 100% 30.17 in - NE 4.6 mph - -  
8:00 AM 31.5 °F 25.8 °F 31.1 °F 99% 30.17 in - NE 5.8 mph - N/A   Unknown
9:00 AM 31.6 °F 27.0 °F 31.3 °F 99% 30.19 in - NE 4.6 mph - N/A   Unknown
10:00 AM 32.2 °F 27.7 °F 31.8 °F 99% 30.18 in - East 4.6 mph - 0.02 in   Unknown
11:00 AM 32.7 °F 28.3 °F 32.5 °F 99% 30.16 in - ENE 4.6 mph - 0.04 in   Unknown
12:00 PM 34.9 °F 27.7 °F 34.7 °F 99% 30.10 in - East 9.2 mph - 0.01 in   Unknown
1:00 PM 36.0 °F 28.5 °F 35.4 °F 98% 30.07 in - East 10.4 mph - 0.01 in   Unknown
2:00 PM 36 °F - 35 °F 96% 30.04 in - ENE 8.1 mph - -  
2:00 PM 36.0 °F 30.3 °F 35.2 °F 97% 30.04 in - East 6.9 mph - 0.02 in   Unknown
3:00 PM 36.3 °F 31.6 °F 35.8 °F 98% 30.05 in - ENE 5.8 mph - 0.01 in   Unknown
4:00 PM 36.1 °F 29.9 °F 35.6 °F 98% 30.02 in - ENE 8.1 mph - 0.05 in   Unknown
5:00 PM 35.6 °F 28.6 °F 35.1 °F 98% 30.03 in - ENE 9.2 mph - 0.02 in   Unknown
6:00 PM 35.6 °F 27.5 °F 35.2 °F 99% 29.98 in - ENE 11.5 mph - 0.04 in   Unknown
7:00 PM 35.1 °F 29.3 °F 34.7 °F 99% 29.99 in - NNE 6.9 mph - 0.03 in   Unknown
8:00 PM 34 °F - 33 °F 97% 29.98 in - North 5.8 mph - -  
8:00 PM 34.0 °F 29.8 °F 33.4 °F 98% 29.98 in - North 4.6 mph - 0.03 in   Unknown
9:00 PM 33.8 °F 30.8 °F 33.3 °F 98% 29.97 in - North 3.5 mph - 0.04 in   Unknown
10:00 PM 34.0 °F 28.8 °F 33.3 °F 97% 29.96 in - NE 5.8 mph - 0.04 in   Unknown
11:00 PM 33.8 °F 28.6 °F 33.3 °F 98% 29.93 in - ENE 5.8 mph - 0.01 in   Unknown